DAL918 KPHX-KATL

Flight info

Callsign DAL918
Flight time N/A
Altitude 35000
Route BROAK1 MAXXO CNX KF30A/N0438F370 KM30G MEMFS HUTCC KNSAW RUSSA GLAVN2
Aircraft A321/M-SDE3FGHIRWY/LB1

Departure

Time 2026-05-04 14:45
Airport Phoenix Sky Harbor International Airport (KPHX)

Arrival

Time N/A
Airport Hartsfield Jackson Atlanta International Airport (KATL)
Time Latitude Longitude Altitude Speed Heading
2026-05-04 14:27 33.43389 -112.01028 1116 ft 0 kts 346°
2026-05-04 14:33 33.43387 -112.01027 1117 ft 2 kts 346°
2026-05-04 14:33 33.43362 -112.01021 1118 ft 4 kts 351°
2026-05-04 14:34 33.43335 -112.01017 1120 ft 4 kts 358°
2026-05-04 14:34 33.43308 -112.01018 1121 ft 4 kts 16°
2026-05-04 14:34 33.43293 -112.01026 1115 ft 4 kts 51°
2026-05-04 14:34 33.43287 -112.01040 1115 ft 1 kts 90°
2026-05-04 14:35 33.43287 -112.01042 1116 ft 0 kts 90°
2026-05-04 14:38 33.43286 -112.01022 1122 ft 6 kts 102°
2026-05-04 14:38 33.43241 -112.00989 1119 ft 9 kts 151°
2026-05-04 14:38 33.43218 -112.00923 1126 ft 10 kts 94°
2026-05-04 14:38 33.43215 -112.00823 1126 ft 13 kts 90°
2026-05-04 14:39 33.43214 -112.00720 1125 ft 12 kts 90°
2026-05-04 14:39 33.43215 -112.00614 1122 ft 16 kts 90°
2026-05-04 14:39 33.43215 -112.00447 1123 ft 25 kts 90°
2026-05-04 14:40 33.43215 -112.00312 1127 ft 25 kts 90°
2026-05-04 14:41 33.43214 -112.00180 1127 ft 25 kts 90°
2026-05-04 14:42 33.43215 -111.99774 1124 ft 24 kts 90°
2026-05-04 14:42 33.43215 -111.99580 1127 ft 23 kts 91°
2026-05-04 14:42 33.43214 -111.99400 1123 ft 16 kts 90°
2026-05-04 14:43 33.43190 -111.99311 1120 ft 7 kts 172°
2026-05-04 14:43 33.43162 -111.99321 1133 ft 1 kts 205°
2026-05-04 14:43 33.43139 -111.99339 1133 ft 8 kts 215°
2026-05-04 14:43 33.43104 -111.99393 1132 ft 2 kts 265°
2026-05-04 14:44 33.43105 -111.99395 1132 ft 0 kts 267°
2026-05-04 14:44 33.43104 -111.99447 1132 ft 31 kts 269°
2026-05-04 14:44 33.43104 -112.00001 1132 ft 99 kts 270°
2026-05-04 14:44 33.43104 -112.01048 1129 ft 150 kts 270°
2026-05-04 14:45 33.43101 -112.02454 1268 ft 178 kts 271°
2026-05-04 14:45 33.43068 -112.03944 1906 ft 175 kts 263°
2026-05-04 14:45 33.43015 -112.04924 2288 ft 174 kts 258°
2026-05-04 14:45 33.42903 -112.06866 2953 ft 179 kts 262°
2026-05-04 14:46 33.42779 -112.07863 3064 ft 188 kts 250°
2026-05-04 14:46 33.42293 -112.09375 3204 ft 202 kts 245°
2026-05-04 14:46 33.41763 -112.10998 3333 ft 216 kts 245°
2026-05-04 14:46 33.41202 -112.12752 3428 ft 237 kts 246°
2026-05-04 14:47 33.40579 -112.14739 3837 ft 262 kts 247°
2026-05-04 14:47 33.39856 -112.16763 4940 ft 266 kts 234°
2026-05-04 14:47 33.38460 -112.18179 6004 ft 267 kts 200°
2026-05-04 14:47 33.36627 -112.18410 7063 ft 269 kts 172°
2026-05-04 14:48 33.34793 -112.17924 8114 ft 272 kts 166°
2026-05-04 14:48 33.32974 -112.17232 9080 ft 275 kts 165°
2026-05-04 14:48 33.31151 -112.16480 9876 ft 279 kts 164°
2026-05-04 14:48 33.29326 -112.15505 10636 ft 289 kts 152°
2026-05-04 14:49 33.27724 -112.13908 11374 ft 304 kts 140°
2026-05-04 14:49 33.26328 -112.11869 11683 ft 333 kts 128°
2026-05-04 14:49 33.25255 -112.09359 11965 ft 363 kts 114°
2026-05-04 14:49 33.24694 -112.06333 12570 ft 381 kts 98°
2026-05-04 14:50 33.24793 -112.03137 13278 ft 391 kts 84°
2026-05-04 14:50 33.25159 -111.99886 13865 ft 397 kts 84°
2026-05-04 14:50 33.25547 -111.96607 14373 ft 402 kts 83°
2026-05-04 14:50 33.26173 -111.93319 14879 ft 409 kts 72°
2026-05-04 14:51 33.27286 -111.90182 15416 ft 413 kts 62°
2026-05-04 14:51 33.28656 -111.87086 15938 ft 418 kts 62°
2026-05-04 14:51 33.29999 -111.84036 16452 ft 422 kts 62°
2026-05-04 14:51 33.31388 -111.80866 16971 ft 427 kts 62°
2026-05-04 14:52 33.32770 -111.77701 17468 ft 432 kts 62°
2026-05-04 14:52 33.34163 -111.74505 17984 ft 436 kts 62°
2026-05-04 14:52 33.35575 -111.71271 18455 ft 441 kts 62°
2026-05-04 14:52 33.37001 -111.68001 18887 ft 445 kts 62°
2026-05-04 14:53 33.38434 -111.64706 19306 ft 449 kts 62°
2026-05-04 14:53 33.39878 -111.61376 19712 ft 453 kts 62°
2026-05-04 14:53 33.41332 -111.58017 20116 ft 457 kts 62°
2026-05-04 14:53 33.42758 -111.54601 20419 ft 461 kts 66°
2026-05-04 14:54 33.43921 -111.51008 20828 ft 465 kts 69°
2026-05-04 14:54 33.48243 -111.37323 22290 ft 479 kts 69°
2026-05-04 14:54 33.53024 -111.22154 23736 ft 494 kts 69°
2026-05-04 14:54 33.57508 -111.06331 24991 ft 505 kts 72°
2026-05-04 14:55 33.61938 -110.90235 26205 ft 517 kts 71°
2026-05-04 14:55 33.66533 -110.73738 27360 ft 527 kts 70°
2026-05-04 14:55 33.71200 -110.56812 28505 ft 538 kts 70°
2026-05-04 14:55 33.75907 -110.39685 29467 ft 548 kts 70°
2026-05-04 14:56 33.80723 -110.22035 30436 ft 556 kts 70°
2026-05-04 14:56 33.82682 -110.14799 30788 ft 560 kts 70°
2026-05-04 14:56 33.83887 -110.10345 31097 ft 560 kts 70°
2026-05-04 14:56 33.85091 -110.05893 31399 ft 560 kts 70°
2026-05-04 14:57 33.86297 -110.01432 31693 ft 560 kts 70°
2026-05-04 14:57 33.87497 -109.96997 31857 ft 556 kts 70°
2026-05-04 14:57 33.89091 -109.91096 32115 ft 560 kts 70°
2026-05-04 14:57 33.93886 -109.73234 33283 ft 562 kts 70°
2026-05-04 14:58 33.98660 -109.55293 34515 ft 562 kts 69°
2026-05-04 14:58 34.03407 -109.37334 34977 ft 562 kts 70°
2026-05-04 14:58 34.07976 -109.19987 35048 ft 546 kts 69°
2026-05-04 14:58 34.11483 -109.06627 34927 ft 558 kts 69°
2026-05-04 14:59 34.12632 -109.02201 35056 ft 554 kts 70°
2026-05-04 14:59 34.13783 -108.97761 34990 ft 554 kts 69°
2026-05-04 14:59 34.20349 -108.72400 34871 ft 553 kts 69°
2026-05-04 15:00 34.23474 -108.59868 34047 ft 521 kts 43°
2026-05-04 15:00 34.26138 -108.56792 31271 ft 555 kts 45°
2026-05-04 15:00 34.28174 -108.52976 31844 ft 542 kts 61°